Weather in Cincinnati

United States     39°08′03″N   84°26′14″W
temp.,
°C
wind,
m/s
gust,
m/s
humid.,
%
clouds,
%
prec.,
mm/h
press.,
hPa
HPBL,
m
23 may, mon
mon2323:00+14n3965100 0.0 1026415
02:00+12nne41061100 0.0 1026427
05:00+10nne3960100 0.0 1025433
08:00+11nne3966100 0.0 1026402
11:00+13nne4760100 0.0 1025566
14:00+14ne3763100 0.0 1024705
17:00+14ene2781100 0.3 1022465
20:00+14ene2884100 0.4 1022422
24 may, tue
tue2423:00+12nne3991100 0.0 1022324
02:00+10nne3891100 0.0 1021273
05:00+9ne2888100 0.0 1021220
08:00+11ne367660 0.0 1022231
11:00+17nne3561100 0.0 1021656
14:00+21ne3455100 0.0 10201091
17:00+22ene3457100 0.0 10191206
20:00+20ene247879 0.0 1019105
25 may, wed
wed2523:00+16ene269098 0.0 1019139
02:00+15e2796100 0.0 1019167
05:00+14e2896100 0.0 1018209
08:00+16e499089 0.0 1019265
11:00+23se4668100 0.0 1018702
14:00+26s356387 0.2 10161282
17:00+25s3778100 2.7 10151002
20:00+23s1184100 3.0 101422
26 may, thu
thu2623:00+20sse31092100 0.1 1016308
02:00+17s41397100 2.8 1017377
05:00+18s3997100 0.6 1016284
08:00+19sse2796100 0.6 1016264
11:00+21s3118599 0.3 1015658
14:00+25ssw5116417 1.3 10141635
17:00+24sw4862100 0.8 10131329
20:00+21sse228881 1.6 101155
27 may, fri
fri2723:00+19sse2798100 6.0 1011447
02:00+18sse31298100 10.5 1010675
05:00+18s3997100 0.5 1009611
08:00+18s389760 0.7 1009520
11:00+22ssw466942 0.3 10091173
14:00+25sw465077 0.5 10072047
17:00+21s4875100 0.6 1006591
20:00+19ssw3789100 2.6 1006409